Location: Dziadowski
(50.3833°N, 20.0333°E)
Time: 05:18:32
(UTC+00:00)

Cosmos 2154 Rocket - Pass Details

Date: 18 January 2026
Orbit: 965 x 997 km, 82.9° (Epoch: 17 February)

Event Time Altitude Azimuth Distance (km) Brightness Sun altitude
Rises 04:10:50 0° 189° (S) 3,692 7.0 -21.9°
Reaches altitude 10° 04:13:21 10° 190° (S) 2,744 6.3 -21.5°
Maximum altitude 04:19:40 85° 278° (W) 995 3.9 -20.5°
Drops below altitude 10° 04:25:59 10° 9° (N) 2,740 6.3 -19.5°
Sets 04:28:30 0° 10° (N) 3,687 7.0 -19.1°
